COSMOS 588

导读

COSMOS 588是苏联(发射信息标注为CIS,即独立国家联合体)于1973年10月2日08:00发射的“宇宙”系列卫星,属于苏联军事侦察卫星系列,继承了冷战时期苏联航天探索与空间监测的技术脉络。该卫星进入近地轨道执行任务,是苏联“宇宙”系列编号内早期空间任务载体,为苏联积累了大量轨道运行、空间探测数据,至今相关残骸仍在地球轨道中运行。

基本信息
目录编号:
6845
目录名称:
COSMOS 588
国际标识:
1973-069A
轨道中心:
EARTH
卫星名称:
COSMOS 588
卫星全名:
--
卫星状态:
在轨 (已飞行19251 天)
发射日期:
1973-10-02 UTC
国别 :
俄罗斯(独联体) (CIS)
星等 :
--
轨道信息
数据来源 国际轨道数据 AOE轨道数据
星历时间 2026-06-17T13:01:40+0800
9小时前
查看轨道信息
2026-06-15T23:00:00+0800
1天前
查看轨道信息
半长轴 7848.34km 7848.341km
偏心率 0.0028594 0.0028528
轨道倾角 74.002° 74.003°
近地点辐角 154.536° 156.906°
升交点赤经 351.444° 353.547°
平近点角 324.782° 42.346°
近地点 1447.761km 1447.814km
远地点 1492.645km 1492.594km
周期 115.326分钟 115.326分钟
每日圈数 12.486366 12.486365
详细信息
使用方式:
暂无
2D轨道图
3D轨道图
轨道高度分析图
轨道倾角分析图
轨道综合分析图
查看轨道综合分析图